Regional Weather Roundup
Issued by NWS Little Rock, AR

Home | Current Version | Previous Version | Text Only | Print | Product List | Glossary Off
Versions: 1 2 3 4 5 6 7 8 9 10 11 12 13 14 15 16 17 18 19 20 21 22 23 24 25 26 27 28 29 30 31 32 33 34 35 36 37 38 39 40 41 42 43 44 45 46 47 48 49 50

000
ASUS44 KLZK 311005
RWRLZK

WEATHER ROUNDUP FOR ARKANSAS
NATIONAL WEATHER SERVICE LITTLE ROCK AR
500 AM CDT MON AUG 31 2015

NOTE: "FAIR" INDICATES FEW OR NO CLOUDS BELOW 12,000 FEET WITH NO
SIGNIFICANT WEATHER AND/OR OBSTRUCTIONS TO VISIBILITY.

ARZ001-003-010-029-311100-
NORTHWEST ARKANSAS

CITY           SKY/WX    TMP DP  RH WIND       PRES   REMARKS
FAYETTEVILLE   CLEAR     67  67 100 CALM      30.02R
FORT SMITH     CLEAR     72  68  87 NE3       29.99R FOG
BENTONVILLE    CLEAR     70  64  83 S6        30.02R
ROGERS         CLEAR     70  66  87 SE6       30.03R
SILOAM SPGS    CLEAR     70  63  78 SE5       30.00R
HIGHFILL       CLEAR     70  67  90 CALM      30.02R
$$

ARZ004-005-016-311100-
NORTH CENTRAL ARKANSAS

CITY           SKY/WX    TMP DP  RH WIND       PRES   REMARKS
BATESVILLE     CLEAR     72  68  88 CALM      30.03R
FLIPPIN        MOCLDY    68  63  83 NE3       30.01R
MTN HOME       PTCLDY    69  66  90 SE3       30.02S
$$

ARZ040-041-311100-
WEST CENTRAL ARKANSAS

CITY           SKY/WX    TMP DP  RH WIND       PRES   REMARKS
MENA           CLEAR     70  68  94 CALM      30.03R
MOUNT IDA        N/A     68  66  93 CALM      29.99R FOG
$$

ARZ009-017-025-026-028-311100-
NORTHEAST ARKANSAS

CITY           SKY/WX    TMP DP  RH WIND       PRES   REMARKS
JONESBORO      CLEAR     66  66 100 CALM      30.03R
NEWPORT        CLEAR     71  70  97 CALM      30.04R
WALNUT RIDGE   CLEAR     68  64  88 CALM      30.04R
BLYTHEVILLE    CLEAR     70  69  97 S6        30.05R
$$

ARZ022-023-033-042-044-311100-
CENTRAL ARKANSAS

CITY           SKY/WX    TMP DP  RH WIND       PRES   REMARKS
LITTLE ROCK    CLEAR     72  69  90 CALM      30.01R
N LITTLE ROCK    N/A     73  71  93 SE3       30.01R
JACKSONVILLE   CLEAR     69  68  97 E1        30.01R
SEARCY         CLEAR     69  68  96 CALM      30.03R
HOT SPRINGS    CLEAR     70  66  87 CALM      30.01R
RUSSELLVILLE   CLEAR     70  67  90 CALM      30.00R
$$

ARZ036-311100-
EAST ARKANSAS

CITY           SKY/WX    TMP DP  RH WIND       PRES   REMARKS
WEST MEMPHIS   CLEAR     70  69  97 SE7       30.03R
$$

ARZ050-053-066-070-073-311100-
SOUTHWEST ARKANSAS

CITY           SKY/WX    TMP DP  RH WIND       PRES   REMARKS
ARKADELPHIA    FAIR      68  68 100 CALM      30.00R
CAMDEN         CLEAR     68  64  88 CALM      29.99R FOG
TEXARKANA      CLEAR     72  67  84 SW3       29.99S
EL DORADO      CLEAR     68  66  93 CALM      30.00R
DE QUEEN       CLEAR     68  68 100 CALM      29.99R FOG
$$

ARZ056-057-069-311100-
SOUTHEAST ARKANSAS

CITY           SKY/WX    TMP DP  RH WIND       PRES   REMARKS
PINE BLUFF     CLEAR     70  68  93 CALM      30.00R
STUTTGART      CLEAR     72  66  83 SE6       30.01R
MONTICELLO     CLEAR     71  69  93 S3        30.00R

$$




USA.gov is the U.S. government's official web portal to all federal, state and local government web resources and services.